STARLINK-34654, 64858

Orbit data source: Space-Track

STARLINK-34654, 64858 is a payload satellite owned by SpaceX/Seattle (US) in SSO that was launched on Sat, 19 Jul 2025 UTC via an FALCON 9 launch vehicle from the Air Force Western Test Range (AFWTR). Payload-class satellites include a variety of spacecraft equipped with specific instruments for various scientific and technological missions. These include communications satellites like Starlink; space stations such as the ISS; scientific satellites like the Hubble; Earth observation satellites from companies like Planet Labs, Umbra, and HawkEye 360; GPS; miniature CubeSats for education and research; and military/defense satellites.

Loading next visibility...
Identifier
64858, 2025-152S
Orbit
SSO
Country
Flag of USUS
Related business
Manufacturer
SpaceX/Seattle
Mission
Operational Commercial Communications
Bus & Motor
STARLINK V2MO, Unknown motor
Mass
575 kg wet, ~530 kg dry
Launch date (UTC)
2025-07-19 (9 months ago)
Launch vehicle
FALCON 9
Launch site
Air Force Western Test Range (AFWTR)
Object type
Payload
Rocket body
Debris
Shape & HBR
Box + 2 Pan, 17.7 m
Radar Cross Section
36.964 m², Large (>1 m²)

Expand to show TLE details & history
Last TLE update: 4 hours ago

TLE from 4 hours ago
0 STARLINK-34654
1 64858U 25152S   26095.55006260  .00001096  00000-0  80101-4 0  9992
2 64858  97.6022 312.0411 0001195 100.0206 260.1156 15.05670132 39469
Epoch: 2026-04-05T13:12Z
TLE epoch observation values (Epoch: 2026-04-05T13:12:05.408Z)
Latitude
-0°
Longitude
-79.83531°
Altitude
552.657 km
Speed
7.585 km/s
True Right ascension
20h 48m 09s
True Declination
0° 00' 00"
Sunlit
Object was in daylight at epoch
Visualization orbit readout
Latitude
Unknown
Longitude
Unknown
Altitude
Unknown
Speed
Unknown
Apparent Right ascension
Unknown
Apparent Declination
Unknown
Sunlit
N/A
Visualization observer readout
Local Sidereal Time
23:21:57
Azimuth
Unknown
Elevation
Unknown
Doppler factor
Unknown
Orbital elements
Apogee altitude
547.27 km
Perigee altitude
545.615 km
Semi-major axis
6,924.58 km
Eccentricity
0.00012
Inclination
97.6022°
RAAN
312.0411°
Arg. of periapsis
100.0206°
True anomaly
260.10211°
Mean anomaly
260.1156°
Eccentric anomaly
260.10885°
Mean motion
3.76663 °/min
Orbital period
95.58 mins
BSTAR
0.000080101
Loading maneuver chart data...
Computing Atmospheric mass density...
Loading historical data...
Loading historical data...
Loading historical data...
Loading historical data...
Loading historical data...
Loading historical data...
Loading historical data...

Documentation

Showing up to 5 results
|